Location: Middle Street
(51.7167°N, 0.0333°E)
Time: 19:46:44
(UTC+00:00)

SeaSat 1 - Pass Details

Date: 20 January 2021
Orbit: 744 x 747 km, 108.0° (Epoch: 27 February)

Event Time Altitude Azimuth Distance (km) Brightness Sun altitude
Exits shadow 18:13:46 - 19° (NNE) 2,682 5.0 -15.9°
Reaches altitude 10° 18:15:01 10° 11° (NNE) 2,275 4.7 -16.1°
Maximum altitude 18:18:42 22° 323° (NW) 1,614 4.5 -16.7°
Drops below altitude 10° 18:22:24 10° 274° (W) 2,269 6.1 -17.3°
Sets 18:25:06 0° 260° (W) 3,190 7.5 -17.7°
